Lapse_Rate
7.4 7.3 7.2 7.2 7.2 7.1 7.3 7.5 7.5 7.3 7.2 7.0 6.9 6.8 7.1 7.5 7.6 7.5 7.6 7.1 7.1 6.9 7.3 6.6 6.9 7.3 7.4 7.4 7.7 7.3 6.8 6.8 6.5 6.4 6.3 6.0 6.2 6.0 6.2 6.2 6.4 6.4 6.0 5.8 5.9 5.6 5.3 6.6 6.8 7.0 7.3 7.2 6.9 6.9
7.0 7.0 7.1 7.1 7.2 7.4 7.5 7.5 7.5 7.5 7.2 7.0 6.9 7.0 7.3 7.5 7.6 7.5 7.3 6.9 7.0 7.4 7.1 7.1 6.7 7.1 6.8 7.2 7.3 7.1 7.7 7.5 7.1 6.6 6.1 6.5 6.5 6.2 6.3 6.2 6.4 6.1 6.4 6.3 6.0 6.0 6.6 6.6 6.7 7.0 6.8 6.6 6.6 6.5
6.8 7.0 7.3 7.3 7.4 7.5 7.7 7.8 7.7 7.5 7.3 6.9 7.0 7.3 7.4 7.4 7.6 7.2 7.3 7.1 7.2 7.0 6.9 6.5 6.6 7.0 7.2 7.2 7.1 7.1 7.1 7.1 7.2 7.0 6.6 6.4 6.7 6.4 6.5 6.8 6.9 6.3 6.3 6.0 6.0 6.5 6.7 6.5 6.5 6.7 6.6 6.3 6.3 6.5
7.0 7.0 7.1 7.1 7.1 7.4 7.6 7.6 7.7 7.5 7.3 6.9 6.8 7.3 7.4 7.6 7.6 7.2 7.1 7.1 7.1 7.5 6.4 6.5 7.0 7.1 6.9 7.2 7.1 7.0 6.8 6.9 6.7 6.4 6.5 6.2 6.6 6.6 6.6 6.8 6.7 6.7 6.4 6.6 6.2 6.2 6.1 6.2 6.3 6.2 6.1 6.0 6.1 6.2
7.0 7.0 7.0 7.0 7.1 7.2 7.3 7.4 7.4 7.4 7.4 7.0 6.9 7.3 7.8 7.5 7.2 6.8 6.8 6.7 6.8 6.9 6.8 6.7 6.8 7.2 7.1 6.9 6.6 6.7 6.5 6.5 6.3 6.1 6.1 6.3 6.4 6.5 6.4 6.6 6.5 6.9 7.1 7.0 6.9 6.6 6.4 6.3 6.2 6.2 6.0 6.0 6.0 6.0
6.5 6.8 7.1 6.8 6.8 6.8 7.0 7.1 7.3 7.5 7.4 6.9 7.3 7.6 6.9 6.8 6.8 6.8 6.6 6.6 6.8 6.9 6.7 6.8 6.6 6.8 7.0 6.5 6.4 6.2 6.0 5.9 6.1 6.0 6.2 6.1 6.3 6.4 6.4 6.4 6.7 6.9 6.9 6.9 6.7 6.5 6.2 6.1 6.0 6.1 6.1 6.0 6.0 6.1
7.7 7.8 7.7 7.3 7.3 7.2 7.2 7.4 7.5 7.4 7.1 6.8 6.8 6.6 6.5 6.7 6.7 6.7 6.5 7.0 6.7 6.7 6.8 6.8 6.7 6.7 6.6 6.4 6.2 5.9 5.9 6.0 6.0 5.9 5.9 6.2 6.4 6.4 6.5 6.6 6.9 7.0 6.9 6.8 6.5 6.3 6.2 6.0 6.1 6.0 5.9 6.0 6.2 6.2
8.0 8.9 9.0 8.7 8.4 8.0 7.9 7.8 7.4 6.6 6.4 6.2 6.3 6.4 6.4 6.5 6.7 6.7 6.8 6.9 6.4 6.5 6.6 6.9 6.5 6.5 6.4 6.2 6.1 6.1 6.1 6.0 6.0 6.0 6.1 6.3 6.6 6.8 6.9 6.8 6.8 6.6 6.6 6.5 6.4 6.3 6.1 6.1 6.1 6.1 6.2 6.2 6.4 6.9
8.2 8.8 8.8 8.7 8.3 8.0 7.6 7.3 7.0 6.6 6.2 6.4 6.3 6.4 6.4 6.5 7.0 7.1 7.5 7.2 6.5 6.7 6.5 6.8 6.7 5.8 5.7 5.9 6.1 6.0 6.1 5.9 6.0 6.2 6.4 6.5 6.9 6.8 6.7 6.9 6.9 6.7 6.7 6.7 6.7 6.6 6.6 6.4 6.3 6.2 6.1 6.4 6.8 7.2
7.9 8.2 8.3 8.2 8.0 7.8 7.5 7.3 7.1 6.8 6.5 6.3 6.2 6.1 6.2 6.8 7.0 7.3 7.2 6.9 6.7 6.2 6.0 6.2 6.8 6.1 5.8 5.9 5.9 5.9 5.9 5.9 6.1 6.3 6.5 6.5 6.5 6.8 6.6 6.4 6.6 6.8 6.9 6.7 6.7 6.6 6.4 6.3 6.2 6.1 6.2 6.5 6.7 7.1
7.7 8.1 8.0 7.9 7.7 7.5 7.3 7.1 6.8 6.4 6.3 6.1 5.9 6.6 6.8 6.6 6.6 6.9 6.7 6.5 6.1 6.1 6.1 6.3 6.3 6.4 5.9 6.2 6.4 6.3 6.1 6.3 6.4 6.5 6.4 6.2 6.4 6.3 6.4 6.6 6.6 6.7 6.6 6.6 6.6 6.4 6.3 6.2 6.1 6.3 6.4 6.4 6.6 6.8
7.4 7.8 8.0 8.0 7.7 7.5 7.3 7.0 6.6 6.3 6.1 6.1 6.6 6.6 6.5 6.1 6.3 6.4 6.0 5.9 5.9 6.1 5.9 5.8 5.6 5.8 5.7 5.8 6.3 6.7 6.9 6.9 6.7 6.5 6.4 6.2 6.4 6.5 6.6 6.6 6.7 6.6 6.7 6.7 6.6 6.5 6.5 6.4 6.4 6.6 6.6 6.6 6.6 6.7
6.8 6.6 6.8 7.1 7.1 6.9 6.8 6.5 6.4 6.4 6.4 6.5 6.5 5.9 6.3 6.0 5.6 5.9 5.7 5.7 5.7 5.9 6.0 5.6 5.5 5.8 5.6 6.2 7.0 7.2 7.1 6.7 6.6 6.4 6.6 6.7 6.9 6.8 6.7 6.6 6.7 6.7 6.7 6.7 6.7 6.7 6.5 6.5 6.8 6.9 6.7 6.7 6.7 6.7
6.3 5.9 5.5 5.5 5.7 6.1 6.3 6.1 6.0 6.2 6.2 6.2 6.4 6.1 6.0 6.2 5.8 5.8 5.8 6.3 6.8 6.6 6.1 5.7 5.8 5.7 5.8 6.9 7.3 6.9 6.7 6.6 6.4 6.6 7.1 7.6 7.3 7.1 6.8 6.7 6.7 6.8 6.7 6.7 6.8 6.7 6.6 6.7 6.9 6.9 6.8 6.8 6.7 6.7
5.7 5.6 5.6 5.5 5.8 5.9 5.6 5.9 5.9 6.1 6.4 6.5 6.8 6.8 6.3 6.3 6.5 6.4 6.4 6.8 7.0 6.8 6.5 6.0 6.3 6.7 7.0 7.3 7.5 7.1 6.7 6.8 7.0 7.2 7.7 7.5 7.2 7.0 7.1 7.1 7.1 7.1 7.0 7.0 6.9 6.7 6.5 6.7 6.8 6.8 6.8 6.9 6.8 6.7
6.1 6.1 5.8 5.9 6.0 6.0 6.1 6.1 5.9 6.0 6.8 7.0 6.6 5.9 6.5 6.7 6.5 6.6 6.7 6.9 6.9 6.5 6.2 6.4 6.9 6.9 7.4 7.6 7.6 7.5 7.4 7.7 7.9 7.8 7.5 7.5 7.3 7.1 7.1 7.2 7.3 7.2 7.1 7.0 6.9 6.6 6.6 6.8 6.8 6.9 6.9 6.7 6.5 6.4
6.1 6.2 6.0 6.2 6.1 6.0 6.1 5.9 5.7 5.9 6.3 6.1 5.8 6.1 6.5 6.8 7.1 7.1 6.7 6.7 6.4 6.4 6.8 7.4 7.7 7.5 7.6 7.6 7.6 7.7 8.0 8.1 8.1 7.9 7.6 7.5 7.5 7.4 7.4 7.4 7.3 7.2 7.1 7.0 6.8 6.6 6.7 6.8 6.9 6.9 6.9 6.6 6.5 6.5
6.7 6.4 6.1 6.0 6.0 5.7 5.6 5.9 6.5 6.7 6.3 6.1 6.2 5.9 6.1 6.7 6.4 6.3 6.0 6.3 6.5 6.8 7.4 7.7 7.6 7.5 7.6 7.5 7.9 8.2 8.2 8.1 8.0 7.8 7.7 7.6 7.4 7.4 7.3 7.2 7.2 7.1 7.0 6.9 6.7 6.7 6.8 6.9 7.0 7.0 6.8 6.6 6.7 6.6
6.4 6.4 6.4 6.3 6.2 6.6 6.8 7.0 7.3 6.3 6.1 6.4 6.5 6.5 6.4 6.3 6.2 6.3 6.4 6.4 6.8 7.2 7.6 7.8 7.6 7.6 7.9 8.1 8.2 8.2 8.2 8.1 8.2 8.2 7.9 7.5 7.2 7.1 7.1 7.2 7.1 7.0 6.9 6.8 6.7 6.6 6.8 6.9 6.9 6.9 6.8 6.7 6.6 6.7
5.5 5.6 5.9 6.0 6.4 6.7 7.0 7.2 7.4 7.0 6.6 6.7 6.6 6.5 6.6 6.8 6.8 6.8 6.7 6.8 7.0 7.0 7.5 7.7 7.9 8.0 7.9 7.9 7.9 7.8 7.9 7.9 7.8 7.8 7.7 7.4 7.1 7.1 7.1 7.1 7.0 7.0 6.8 6.7 6.6 6.6 6.8 6.9 6.9 6.8 6.7 6.7 6.6 6.6
5.9 6.4 6.7 6.9 7.2 7.3 7.4 7.1 7.3 6.8 6.5 6.5 6.6 6.8 6.8 6.7 6.9 6.9 6.9 6.9 6.9 7.1 7.4 7.6 7.7 7.7 7.6 7.6 7.6 7.5 7.5 7.4 7.2 7.0 6.9 7.0 6.9 7.0 7.0 7.0 7.0 6.9 6.9 6.8 6.6 6.6 6.7 6.9 6.8 6.8 6.7 6.7 6.7 6.7
6.4 6.7 7.1 7.3 7.4 7.5 7.2 6.8 6.8 6.5 6.2 6.3 6.4 6.6 6.6 6.4 6.4 6.6 6.9 7.0 7.1 7.2 7.3 7.3 7.3 7.3 7.3 7.2 7.3 7.3 7.2 7.2 7.1 6.9 7.0 6.9 6.9 6.9 6.9 6.8 6.8 6.7 6.7 6.6 6.5 6.6 6.7 6.7 6.8 6.7 6.7 6.6 6.6 6.6
7.0 7.2 7.3 7.5 7.6 7.3 6.7 7.0 6.7 6.5 6.1 6.2 6.3 6.4 6.4 6.5 6.6 6.7 6.8 6.9 7.0 7.0 7.0 7.0 6.8 6.7 6.8 6.8 6.9 6.9 6.9 6.9 6.8 6.8 6.9 6.9 6.8 6.9 6.9 6.9 6.8 6.7 6.6 6.4 6.5 6.6 6.7 6.8 6.7 6.5 6.6 6.5 6.4 6.4
6.9 7.0 6.9 7.0 7.2 7.1 7.0 6.8 7.0 7.0 6.6 6.3 6.3 6.3 6.3 6.5 6.7 6.8 6.9 6.9 6.9 6.9 6.8 6.6 6.6 6.6 6.7 6.8 6.7 6.7 6.8 6.8 6.8 6.8 6.8 6.8 6.8 6.9 6.9 7.0 7.0 6.9 6.7 6.6 6.5 6.6 6.7 6.8 6.6 6.6 6.6 6.5 6.4 6.3
7.0 7.0 6.9 6.9 6.8 6.8 6.7 6.9 6.9 7.1 6.7 6.7 6.7 6.7 6.7 6.8 6.8 6.8 6.8 6.8 6.8 6.8 6.8 6.7 6.7 6.7 6.7 6.7 6.6 6.6 6.7 6.7 6.8 6.8 6.8 6.9 7.0 7.0 7.1 7.1 7.1 6.9 6.7 6.6 6.5 6.7 6.8 6.7 6.5 6.5 6.4 6.3 6.3 6.3
7.2 7.1 6.9 6.8 6.5 6.5 6.5 6.5 6.7 7.0 7.0 6.7 6.7 6.7 6.7 6.8 6.9 6.8 6.7 6.7 6.7 6.7 6.7 6.7 6.7 6.7 6.7 6.7 6.7 6.8 6.9 6.9 7.0 7.0 7.1 7.1 7.1 7.1 7.1 7.1 6.9 6.8 6.6 6.6 6.6 6.6 6.6 6.5 6.4 6.3 6.2 6.2 6.2 6.2
7.5 7.3 7.2 7.2 7.0 7.0 6.8 6.8 6.7 6.6 6.7 6.8 6.8 6.8 6.8 7.0 7.1 7.2 7.1 7.1 7.0 7.0 7.0 7.0 7.0 7.0 7.1 7.2 7.2 7.2 7.2 7.2 7.1 7.0 7.0 7.0 7.0 6.9 6.9 6.8 6.8 6.8 6.8 6.7 6.6 6.6 6.5 6.3 6.2 6.2 6.1 5.9 6.0 6.2
8.0 7.8 7.8 7.8 7.7 7.5 7.4 7.2 7.0 6.9 7.1 7.3 7.2 7.3 7.6 7.7 7.8 7.8 7.8 7.7 7.6 7.5 7.6 7.6 7.6 7.6 7.5 7.4 7.3 7.3 7.2 7.2 7.1 7.0 6.9 6.9 6.8 6.8 6.9 6.9 6.9 6.9 6.8 6.7 6.6 6.5 6.3 6.0 6.0 6.0 5.8 5.6 5.9 6.0
7.8 8.0 8.1 8.1 8.1 8.1 8.1 8.0 8.1 8.1 8.2 8.2 8.2 8.3 8.3 8.3 8.2 8.2 8.2 8.0 7.9 7.9 7.7 7.7 7.7 7.6 7.6 7.5 7.3 7.2 7.2 7.2 7.1 7.1 7.0 7.0 7.0 7.0 7.1 7.2 7.2 7.2 7.1 6.8 6.4 6.2 6.0 5.9 5.9 5.8 5.6 5.6 5.6 5.6
7.7 7.8 8.0 8.1 8.1 8.1 8.1 8.2 8.3 8.4 8.4 8.4 8.4 8.3 8.3 8.2 8.2 8.2 8.2 8.1 8.1 8.0 7.9 7.9 7.9 7.9 7.8 7.8 7.6 7.3 7.4 7.5 7.5 7.5 7.5 7.4 7.3 7.3 7.5 7.5 7.5 7.3 7.1 6.7 6.3 6.1 6.0 5.9 5.7 5.6 5.5 5.4 5.3 5.2
7.2 7.3 7.5 7.7 7.9 8.1 8.1 8.2 8.2 8.2 8.2 8.2 8.3 8.3 8.2 8.2 8.2 8.2 8.1 8.1 8.0 8.0 8.0 8.0 8.1 8.1 8.1 8.0 8.0 8.0 7.9 7.7 7.6 7.5 7.5 7.6 7.7 7.7 7.7 7.6 7.5 7.3 7.0 6.6 6.3 6.0 5.9 5.7 5.6 5.5 5.3 5.2 5.1 4.9
7.2 7.2 7.3 7.3 7.5 7.8 8.0 8.0 8.0 8.0 8.0 8.1 8.1 8.2 8.2 8.2 8.2 8.2 8.1 8.1 8.1 8.1 8.1 8.2 8.3 8.3 8.2 8.1 8.1 8.1 8.0 7.8 7.6 7.6 7.6 7.7 7.9 7.8 7.7 7.6 7.4 7.2 6.9 6.6 6.3 5.9 5.7 5.6 5.4 5.2 5.1 5.1 5.0 4.9
7.3 7.3 7.2 7.2 7.3 7.4 7.5 7.6 7.6 7.5 7.7 7.8 7.9 8.0 8.0 8.0 7.9 8.1 8.2 8.3 8.3 8.3 8.3 8.3 8.2 8.2 8.2 8.2 8.2 8.1 7.9 7.7 7.8 7.8 7.8 7.7 7.7 7.5 7.4 7.3 7.1 6.8 6.5 6.2 6.1 5.7 5.3 5.2 5.1 5.0 5.0 4.9 4.7 4.6
Wind_Speed
22 22 23 23 24 25 25 25 25 25 26 26 25 24 22 22 23 14 3 5 5 1 6 3 1 5 4 8 8 7 4 2 3 4 4 4 3 5 4 6 7 6 6 3 2 2 6 5 3 5 5 5 8 7
24 24 24 23 24 24 25 26 28 28 28 29 27 26 23 21 23 19 2 3 4 2 4 2 7 16 12 8 5 9 5 6 5 4 3 3 3 3 6 3 1 1 6 5 6 5 2 2 3 7 5 8 5 7
26 27 28 27 29 28 28 28 33 32 29 29 28 26 24 22 21 16 3 4 3 2 3 3 4 8 5 3 3 5 1 5 4 4 4 2 4 4 3 3 4 2 3 4 4 2 4 8 7 7 8 8 7 8
30 31 32 29 30 32 33 33 32 33 31 30 29 27 25 23 22 21 3 2 3 1 2 3 10 5 4 4 2 4 5 6 5 3 3 3 3 2 4 4 4 4 6 6 2 5 8 4 6 10 8 10 11 9
34 36 37 35 32 29 26 24 25 28 32 29 31 30 27 24 23 12 2 3 4 1 1 2 7 8 4 7 10 9 7 5 3 3 3 1 2 3 1 3 1 4 6 4 5 11 5 6 6 7 9 8 11 15
34 35 35 33 31 29 26 24 26 27 32 31 31 30 27 27 24 6 2 2 6 4 2 1 3 6 5 6 8 8 6 4 3 4 2 2 0 3 3 2 3 4 5 7 4 7 8 14 9 6 9 11 13 14
32 36 39 37 32 31 30 30 29 28 33 30 31 31 29 30 10 5 4 3 13 4 1 1 2 4 1 4 3 4 4 3 4 2 2 2 1 3 3 3 2 10 12 14 16 17 11 11 7 13 14 13 15 13
13 5 14 29 36 30 31 32 32 32 32 31 31 30 28 29 11 2 1 16 8 3 1 2 2 2 2 2 3 2 3 3 5 3 2 2 2 2 2 8 10 12 13 12 8 7 9 12 13 12 13 13 13 11
10 19 26 36 40 35 34 34 33 34 33 33 32 30 15 3 3 1 8 6 3 2 3 2 4 3 2 2 3 4 3 3 2 2 1 3 1 1 6 15 14 15 7 11 12 14 14 14 11 9 11 10 13 10
22 29 33 40 40 38 35 34 36 36 35 34 20 4 3 4 23 10 4 3 3 2 2 2 2 2 4 2 2 3 2 2 2 2 2 3 1 2 9 13 12 12 16 16 14 7 10 10 10 8 9 8 10 9
32 34 38 41 40 38 36 37 39 39 35 5 3 3 7 13 4 1 2 2 3 1 1 2 5 6 3 4 2 2 2 1 2 3 3 1 1 0 5 8 7 10 11 9 11 11 13 15 13 12 10 10 10 9
36 37 39 39 39 37 37 38 41 15 3 7 10 7 3 3 2 4 3 0 2 5 1 8 5 4 3 4 3 2 2 2 3 2 4 3 3 6 10 10 9 10 12 11 10 11 11 12 11 12 10 9 9 9
35 36 38 36 37 39 40 32 19 32 26 8 4 4 3 2 3 5 5 2 3 3 5 8 7 3 3 3 3 3 3 3 2 2 3 3 7 8 11 11 10 10 14 14 13 13 14 13 11 12 11 9 9 8
30 30 31 33 31 23 17 31 30 10 4 4 4 4 1 2 2 3 4 4 3 9 13 11 3 3 2 3 2 4 2 3 2 2 5 4 12 11 10 10 13 10 11 12 12 11 12 11 8 7 8 7 8 7
27 26 23 21 16 25 21 15 12 4 3 4 4 3 1 3 2 2 2 4 8 12 8 4 4 3 2 3 1 3 2 3 5 4 3 7 13 13 12 11 12 11 10 9 8 7 8 9 9 6 5 6 7 6
21 24 15 23 23 18 13 8 5 3 3 3 5 2 1 3 5 3 9 11 5 3 3 3 4 4 1 4 3 5 6 5 4 3 4 10 12 11 11 10 10 9 9 8 7 8 7 8 8 7 5 5 5 6
13 8 19 17 13 8 6 4 4 5 4 4 3 3 3 3 4 3 3 3 1 3 2 3 4 5 2 2 2 3 4 2 2 3 6 12 13 12 10 11 10 10 10 9 7 7 6 5 6 5 6 4 5 4
5 2 6 10 6 7 3 4 4 4 6 3 3 3 2 3 2 3 2 3 3 2 2 2 3 3 4 4 3 3 2 4 5 5 5 7 9 10 10 12 9 10 9 8 8 7 7 8 7 5 5 5 4 3
9 9 15 9 5 4 4 4 4 4 3 2 2 2 2 2 1 2 1 3 3 2 3 3 4 2 1 1 3 5 5 2 6 4 4 4 8 10 10 10 10 8 9 8 8 6 6 7 5 5 4 5 4 3
10 18 15 14 7 3 4 3 3 4 3 2 2 3 2 1 2 2 4 4 3 3 4 3 2 1 1 2 3 5 3 6 8 8 5 5 4 8 9 9 7 9 8 7 4 5 4 3 2 5 4 5 4 3
6 6 9 5 4 5 4 2 4 2 2 2 2 2 2 3 3 4 3 2 4 3 2 2 1 2 2 5 5 6 4 6 5 2 5 6 6 6 6 6 8 7 6 5 6 4 5 4 3 4 4 4 4 4
2 9 3 5 4 4 4 3 3 2 3 1 2 2 3 2 2 2 1 4 2 2 1 2 1 2 4 4 3 5 5 5 5 4 6 9 6 6 6 6 6 5 5 5 5 6 4 4 4 4 5 3 4 4
5 5 4 5 6 5 1 2 4 2 3 0 2 3 2 2 2 2 3 2 1 2 3 3 3 4 4 4 4 5 5 6 4 4 5 4 4 4 5 6 6 6 5 2 4 5 4 6 6 5 4 3 3 2
5 4 5 4 4 1 2 3 2 2 3 3 2 2 1 1 2 3 2 1 1 2 1 2 3 4 2 3 2 2 3 2 4 3 4 5 5 4 5 6 5 4 4 4 4 5 5 5 6 5 4 3 3 3
6 7 4 4 3 4 3 3 3 3 2 2 3 1 2 2 2 2 2 2 2 4 4 4 3 2 3 2 1 1 2 1 3 4 2 3 3 4 3 3 4 4 5 6 5 6 6 5 5 5 4 4 6 4
5 4 3 2 2 3 3 3 3 4 3 2 1 1 2 2 3 2 2 4 3 3 4 5 4 2 1 2 4 3 2 1 3 2 2 4 5 6 6 5 4 1 4 7 8 8 8 6 6 6 4 4 6 6
4 3 2 1 1 2 3 2 2 4 3 4 3 2 3 3 3 2 1 1 2 2 3 4 3 3 3 1 1 2 3 3 2 3 3 3 2 3 6 7 6 4 6 7 8 9 10 8 6 6 5 2 3 5
3 1 2 3 3 1 4 2 2 2 3 1 3 2 7 7 3 2 2 0 3 4 4 3 2 3 3 2 3 5 5 5 6 5 4 5 4 2 2 2 3 10 6 7 7 7 7 7 7 6 6 6 4 3
2 3 3 4 4 4 2 1 2 1 2 2 4 3 3 2 2 1 1 3 2 5 4 4 3 4 5 4 3 2 5 5 5 4 4 2 1 2 2 2 5 4 4 4 6 8 9 7 7 7 8 7 4 4
3 1 3 2 3 0 0 2 1 1 1 1 2 2 2 2 2 2 3 2 2 3 2 3 3 3 3 3 2 1 0 2 3 3 4 4 4 3 3 4 5 4 5 6 6 6 9 8 9 4 7 6 4 4
2 1 1 2 1 1 2 1 1 1 1 1 2 3 3 2 1 2 2 2 2 1 3 3 3 3 4 3 3 3 3 3 3 4 4 3 5 5 4 5 5 5 5 6 5 6 7 6 7 8 8 7 6 6
1 1 1 1 1 2 1 2 2 2 1 2 2 2 2 2 3 1 3 2 0 2 2 2 1 3 4 4 4 4 6 3 4 4 6 4 5 6 6 6 6 6 6 5 5 5 7 8 7 7 7 7 7 7
1 1 2 1 1 2 3 3 2 2 2 3 2 3 3 4 4 3 2 3 2 3 3 2 2 3 3 2 4 4 5 4 6 6 6 7 9 9 7 6 6 7 8 6 5 5 6 7 7 8 8 7 7 6
Wind_Direction
247 245 245 245 242 238 236 235 233 227 226 226 224 224 219 208 218 216 176 185 173 145 278 207 266 274 168 174 169 174 89 335 88 127 151 204 149 194 126 162 170 154 155 166 109 125 257 189 92 161 166 100 126 118
253 252 251 248 244 242 238 240 239 230 221 220 218 220 216 211 213 192 158 174 134 183 264 10 246 260 261 178 146 168 154 157 164 136 177 149 125 124 131 189 112 187 174 174 167 210 258 356 136 111 119 126 133 122
257 254 250 248 245 242 238 232 229 228 222 209 209 211 209 208 205 191 142 164 125 211 288 264 265 283 290 183 212 129 217 151 130 167 150 127 104 121 129 213 105 216 136 129 105 261 119 99 75 93 107 119 118 97
257 254 250 247 247 242 240 237 228 215 211 202 202 202 202 202 196 186 167 171 112 106 232 292 295 267 278 344 182 113 116 64 94 77 83 108 112 137 179 157 139 192 138 142 95 109 98 73 112 122 112 105 113 108
263 256 250 246 241 232 220 208 201 197 198 194 193 197 195 190 185 170 127 189 120 77 261 287 313 312 322 231 105 106 105 94 85 62 65 106 106 91 46 85 164 183 162 158 209 176 145 149 158 132 118 110 120 109
261 255 246 236 224 211 202 202 190 190 186 184 183 183 178 178 164 142 181 258 168 148 283 11 314 312 349 40 81 102 91 79 85 112 120 57 168 107 104 144 311 170 148 142 154 143 130 135 142 125 107 110 111 110
268 254 234 221 207 198 201 193 186 184 175 173 172 172 172 171 156 160 173 185 134 114 160 60 14 322 32 50 44 62 46 66 97 99 79 138 35 81 93 123 147 98 104 104 113 111 109 147 144 125 118 116 106 103
283 115 135 161 174 165 166 163 164 159 155 158 162 162 163 156 118 288 357 156 124 123 111 103 21 9 6 21 64 25 63 37 19 122 54 94 9 62 72 127 125 113 110 116 129 86 124 118 118 121 126 123 112 108
86 108 125 137 146 143 142 149 152 149 148 150 149 150 144 160 164 126 108 96 23 128 158 115 140 184 53 66 88 38 67 53 298 85 93 83 338 176 162 143 139 141 140 134 112 114 119 122 130 131 123 116 115 116
100 109 121 132 137 137 138 141 145 144 144 142 137 101 143 159 116 78 30 45 10 319 133 127 164 119 104 83 38 87 26 120 88 247 98 80 274 309 147 153 146 133 133 129 119 113 121 122 122 108 109 110 119 123
105 111 119 129 133 136 138 137 139 138 139 129 127 116 108 93 65 81 103 174 178 141 132 150 137 121 11 90 116 45 174 144 104 237 116 122 224 155 107 96 112 128 136 144 141 145 144 139 135 123 112 112 115 120
104 110 115 122 127 131 133 134 137 134 113 137 107 94 77 76 151 165 205 57 172 168 107 140 123 122 68 91 90 327 116 49 173 141 95 181 210 144 119 108 99 103 102 86 110 116 118 120 122 119 120 119 118 116
97 107 115 117 121 125 128 128 113 118 110 109 70 80 168 224 68 130 176 274 113 140 143 138 120 103 60 62 68 85 93 195 103 70 208 200 149 139 126 117 100 99 100 98 93 96 101 101 109 122 121 119 124 115
69 78 96 109 115 110 97 124 138 133 72 74 101 67 100 348 187 173 152 152 158 130 141 137 95 125 133 65 134 96 227 85 64 145 220 172 154 140 133 129 121 118 112 112 111 109 107 109 104 94 114 128 126 129
61 78 98 105 103 109 98 65 45 50 70 68 55 73 55 247 238 228 227 107 123 135 131 99 61 82 51 93 138 95 75 212 202 216 202 156 148 142 139 134 129 129 128 121 117 112 115 117 120 117 127 126 124 129
63 70 82 89 103 94 64 54 38 53 57 63 48 42 317 93 73 84 115 118 112 104 81 63 107 76 225 143 116 204 157 214 231 202 148 137 141 139 137 136 132 131 129 126 123 126 127 129 137 141 124 126 142 145
54 64 79 73 56 64 67 68 43 45 52 39 18 352 17 50 65 54 57 102 318 77 117 120 89 190 108 100 176 187 197 202 163 104 137 146 145 142 131 128 131 131 129 131 127 134 134 126 123 125 140 193 161 175
37 30 111 125 135 49 27 46 72 61 52 15 42 360 26 25 38 31 10 6 75 99 99 176 128 101 153 156 209 181 107 88 70 88 98 107 116 126 135 132 129 133 134 137 142 138 141 148 156 173 159 165 150 167
43 37 38 38 87 94 66 31 60 78 36 355 346 5 38 51 27 295 306 14 77 102 77 39 63 85 153 17 150 125 131 107 124 96 76 55 111 122 124 125 128 129 138 145 152 159 165 174 174 170 165 163 184 187
33 25 15 32 54 77 64 25 58 71 56 322 10 16 78 154 278 352 30 24 46 56 40 42 35 7 330 319 68 109 111 128 119 113 105 106 104 118 132 138 139 140 139 147 141 144 155 174 201 172 166 175 160 199
41 343 360 39 43 57 81 53 47 99 126 52 325 32 6 9 29 15 8 357 55 33 71 41 358 315 38 59 76 106 109 106 119 103 142 139 145 140 140 136 142 147 152 157 167 173 170 183 179 145 147 162 152 148
315 341 62 34 72 55 67 10 115 130 78 137 29 49 42 34 342 336 276 54 54 19 6 100 11 8 55 34 23 78 108 110 103 97 89 134 147 155 158 155 154 161 167 173 172 180 186 168 155 144 136 163 142 147
3 30 40 36 67 53 289 34 64 46 97 216 42 55 16 5 270 330 75 84 75 355 40 56 41 47 56 11 38 59 113 129 133 140 145 146 147 154 152 163 170 168 174 190 168 158 162 152 153 145 136 128 136 136
22 51 43 46 61 103 13 19 43 67 62 65 78 59 339 260 318 57 75 68 206 73 75 115 106 98 60 32 31 29 31 59 112 113 142 143 156 169 169 172 170 169 172 147 147 148 149 152 146 146 151 135 160 169
65 346 66 12 357 72 64 25 14 56 105 121 86 0 282 45 67 69 144 164 159 181 180 188 172 182 148 199 250 150 9 114 140 150 170 149 130 117 133 150 157 168 147 140 151 155 160 150 150 157 161 149 160 163
70 301 90 180 292 110 169 118 172 159 115 94 165 235 44 88 75 200 209 182 187 163 177 187 182 178 209 183 157 154 204 148 108 122 178 165 168 166 163 163 159 195 179 160 152 162 166 167 165 165 159 175 150 150
57 316 312 324 229 86 43 31 79 101 113 153 182 121 88 95 208 229 121 25 135 216 163 161 151 157 164 153 63 73 107 99 120 139 92 84 104 160 163 169 186 185 152 151 159 163 170 176 169 165 159 119 159 153
187 81 113 296 28 32 128 74 102 158 199 183 93 139 149 174 183 164 190 39 116 99 83 60 76 116 121 132 122 115 87 92 89 90 81 53 33 32 100 111 113 142 148 156 160 161 168 167 166 163 159 160 163 171
10 316 74 12 2 37 57 85 209 28 311 149 126 168 146 54 24 81 46 105 93 94 87 97 77 88 80 62 60 66 136 148 121 130 145 185 356 318 357 88 118 118 126 127 151 159 162 157 156 156 152 147 137 118
302 45 68 40 90 75 81 357 55 312 314 168 131 91 79 57 352 356 54 101 130 157 142 129 136 132 138 134 134 47 99 169 145 142 168 193 207 183 142 120 118 112 114 115 108 98 108 106 107 96 114 121 122 113
322 306 348 106 154 6 64 356 327 316 328 53 346 106 118 129 62 33 43 359 338 99 129 151 163 169 168 172 174 190 239 272 208 198 178 132 150 164 155 138 133 128 124 125 123 128 126 125 130 129 128 128 130 130
271 245 145 196 269 295 99 239 195 170 213 55 329 89 114 156 174 280 349 335 344 97 68 56 183 218 210 193 188 181 171 186 184 182 175 161 168 168 152 143 140 135 132 127 125 128 136 137 137 137 137 134 131 132
309 4 15 129 115 311 213 182 187 192 201 206 201 178 172 161 213 220 308 19 72 97 86 35 335 318 338 226 198 171 161 160 161 148 149 147 151 153 146 147 143 139 137 132 134 135 137 135 131 130 124 123 123 124